GSAT0208 (GALILEO 11) (41175 NORAD) Tracking and Keplerian Element Data

This shows tracking and keplerian element data for the satellite.

Feedback or suggestion? Click here.




ElementValue
Catalog41175
NameGSAT0208 (GALILEO 11)
Epoch Orbit1867
Epoch Day351.49912982
Epoch Year2018
RAAN176.5734
Inclination54.9295
Eccentricity0.0002345
Argument of Perigee336.5262
Mean Anonmoly23.5102
Mean Motion1.70473545
Decay Rate1.08E-06
L11 41175U 15079B 18351.49912982 .00000108 00000-0 00000+0 0 9990
L22 41175 54.9295 176.5734 0002345 336.5262 23.5102 1.70473545 18679

Live tracking and technical data element details for GSAT0208 (GALILEO 11) (NORAD 41175). GSAT0208 (GALILEO 11) can be tracked NOW for your location showing map with azimuth and elevation plus other details from your city location.

Track the satellite on the map from your city or location and see movement details for azimuth, elevation, latitude, longitude, range, height, and movement on the map or in text.







IsCatalogInMostPopularTable: catalog: 41175, numindb: 96
Update: records affected: 1



GetName: 41175 GSAT0208 (GALILEO 11)

Hit Count: updated at: Tue, 18 Dec 2018 21:24:30 GMT